TALLINN current weather conditions

sailwx.info

Wind from 220 at 9 knots

Air temperature 17.0° C
Dewpoint 13.0° C

Last reported at 2015-Jul-04 01:20 UTC.
Time now 2015-Jul-04 03:21 UTC

Location: N 59°24' E 024°49'.
View on Google Maps.

See reports from other nearby stations

  
Tides and Currents Weather Stations Pressure Air Temp Water Temp Dewpoint Dewpoint Depression Visibility Wind Speed Wind Dir Waves Ship Positions
date/time (UTC)wind fromknots sea level pressurealtimeterstation pressurevisibilityair tempwater tempwave heightnotes
2015-Jul-04 02:20 220 9 17.0
2015-Jul-04 01:50 220 10 17.0
2015-Jul-04 01:20 220 9 17.0
2015-Jul-04 00:50 230 9 17.0
2015-Jul-04 00:20 230 9 17.0
2015-Jul-03 23:50 230 8 17.0
2015-Jul-03 23:20 230 9 17.0
2015-Jul-03 22:50 240 10 18.0
2015-Jul-03 22:20 240 11 18.0
2015-Jul-03 21:50 230 10 19.0
2015-Jul-03 21:20 220 7 19.0
2015-Jul-03 20:50 220 7 19.0
2015-Jul-03 20:20 220 7 19.0
2015-Jul-03 19:50 220 6 20.0
2015-Jul-03 19:20 230 4 21.0
2015-Jul-03 18:50 260 7 22.0
2015-Jul-03 18:20 250 8 22.0
2015-Jul-03 17:50 250 9 23.0
2015-Jul-03 17:20 260 11 23.0
2015-Jul-03 16:50 260 15 24.0
2015-Jul-03 16:20 250 14 24.0
2015-Jul-03 15:50 260 18 24.0
2015-Jul-03 15:20 260 15 25.0
2015-Jul-03 14:50 260 18 25.0
2015-Jul-03 14:20 250 19 25.0
2015-Jul-03 13:50 250 20 25.0
2015-Jul-03 13:20 260 22 25.0
2015-Jul-03 12:50 260 24 26.0
2015-Jul-03 12:20 260 22 26.0
2015-Jul-03 11:50 260 23 26.0
2015-Jul-03 11:20 260 23 26.0
2015-Jul-03 10:50 250 22 26.0
2015-Jul-03 10:20 260 20 26.0
2015-Jul-03 09:50 250 22 26.0
2015-Jul-03 09:20 250 20 26.0
2015-Jul-03 08:50 260 18 26.0
2015-Jul-03 08:20 250 17 25.0
2015-Jul-03 07:50 260 16 25.0
2015-Jul-03 07:20 250 13 25.0
2015-Jul-03 06:50 250 13 24.0
2015-Jul-03 06:20 250 14 23.0
2015-Jul-03 05:50 260 13 23.0
2015-Jul-03 05:20 250 11 21.0
2015-Jul-03 04:50 240 11 21.0
2015-Jul-03 04:20 250 12 20.0
2015-Jul-03 03:50 250 12 20.0
2015-Jul-03 03:20 250 10 19.0
2015-Jul-03 02:50 240 9 18.0
2015-Jul-03 02:20 240 8 17.0
2015-Jul-03 01:50 230 7 17.0
2015-Jul-03 01:20 230 7 17.0
2015-Jul-03 00:50 240 7 17.0
2015-Jul-03 00:20 250 7 17.0
2015-Jul-02 23:50 240 7 17.0
2015-Jul-02 23:20 250 7 17.0
2015-Jul-02 22:50 250 8 18.0
2015-Jul-02 22:20 240 5 18.0
2015-Jul-02 21:50 230 4 18.0
2015-Jul-02 21:20 230 5 18.0
2015-Jul-02 20:50 240 6 18.0
2015-Jul-02 20:20 220 4 18.0
2015-Jul-02 19:50 230 2 18.0
2015-Jul-02 19:20 220 3 19.0
2015-Jul-02 18:50 230 3 21.0
2015-Jul-02 18:20 250 4 21.0
2015-Jul-02 17:50 260 7 22.0
2015-Jul-02 17:20 310 7 22.0
2015-Jul-02 16:50 310 7 22.0
2015-Jul-02 16:20 330 5 23.0
2015-Jul-02 15:50 320 7 23.0
2015-Jul-02 15:20 330 6 23.0
2015-Jul-02 14:50 320 6 23.0
2015-Jul-02 14:20 340 5 23.0
2015-Jul-02 13:50 320 5 23.0
2015-Jul-02 13:20 320 6 23.0
2015-Jul-02 12:50 330 7 23.0
2015-Jul-02 12:20 320 6 23.0
2015-Jul-02 11:50 340 6 23.0
2015-Jul-02 11:20 330 6 22.0
2015-Jul-02 10:50 340 5 23.0
2015-Jul-02 10:20 310 5 22.0
2015-Jul-02 09:50 310 5 22.0
2015-Jul-02 09:20 300 6 22.0
2015-Jul-02 08:50 310 6 21.0
2015-Jul-02 08:20 310 5 21.0
2015-Jul-02 07:50 330 5 21.0
2015-Jul-02 07:20 300 5 21.0
2015-Jul-02 06:50 300 4 20.0
2015-Jul-02 06:20 310 4 20.0
2015-Jul-02 05:50 300 5 19.0
2015-Jul-02 05:20 290 3 17.0
2015-Jul-02 04:50 310 4 17.0
2015-Jul-02 04:20 310 4 16.0
2015-Jul-02 03:50 310 6 16.0
2015-Jul-02 03:20 290 5 16.0